This demonstration page uses our WeatherBlox Daily Observations layout. Learn more.

39.08367, -84.50855

Hourly Observations for January 26, 2020

Temp ( °F °C ) Dew Point ( °F °C ) Humidity (%) Winds ( mph kmh ) Pressure ( in mb ) Visibility ( mi km ) Precip ( " mm )
12:53 am 00:53 Cloudy 34 1.1 31 -0.6 89 89 WSW 13 20 30.03 1017 10 16.0934 0 0
1:53 am 01:53 Cloudy 34 1.1 30 -1.1 85 85 WSW 13 20 30.03 1017 10 16.0934 0 0
2:05 am 02:05 Cloudy 34 1.1 30 -1.1 85 85 WSW 10 17 30.05 1017 10 16.0934 0 0
2:53 am 02:53 Cloudy 34 1.1 29 -1.7 82 82 WSW 10 17 30.03 1017 10 16.0934 0 0
3:53 am 03:53 Cloudy 34 1.1 29 -1.7 82 82 WSW 12 19 30.03 1017 10 16.0934 0 0
4:53 am 04:53 Cloudy 33 0.6 29 -1.7 85 85 SW 9 15 30.03 1017 10 16.0934 0 0
5:53 am 05:53 Cloudy 33 0.6 29 -1.7 85 85 WSW 9 15 30.03 1017 10 16.0934 0 0
6:53 am 06:53 Cloudy 33 0.6 29 -1.7 85 85 WSW 10 17 30.04 1017 10 16.0934 0 0
7:53 am 07:53 Cloudy 33 0.6 28 -2.2 82 82 WSW 8 13 30.05 1018 10 16.0934 0 0
8:53 am 08:53 Cloudy 34 1.1 28 -2.2 79 79 SW 9 15 30.05 1018 10 16.0934 0 0
9:53 am 09:53 Cloudy 34 1.1 29 -1.7 82 82 SW 10 17 30.05 1018 10 16.0934 0 0
10:53 am 10:53 Cloudy 35 1.7 28 -2.2 76 76 SSW 10 17 30.05 1018 10 16.0934 0 0
11:53 am 11:53 Cloudy 35 1.7 28 -2.2 76 76 SW 7 11 30.05 1018 10 16.0934 0 0
12:53 pm 12:53 Cloudy 36 2.2 29 -1.7 76 76 S 8 13 30.01 1016 10 16.0934 0 0
1:53 pm 13:53 Cloudy 39 3.9 30 -1.1 70 70 WSW 8 13 29.98 1015 10 16.0934 0 0
2:53 pm 14:53 Cloudy 40 4.4 30 -1.1 68 68 WSW 6 9 29.97 1015 10 16.0934 0 0
3:53 pm 15:53 Mostly Cloudy 43 6.1 31 -0.6 63 63 SSW 12 19 29.96 1015 10 16.0934 0 0
4:53 pm 16:53 Mostly Cloudy 43 6.1 30 -1.1 60 60 WSW 5 7 29.95 1014 10 16.0934 0 0
5:53 pm 17:53 Mostly Clear 38 3.3 29 -1.7 70 70 SW 8 13 29.95 1014 10 16.0934 0 0
6:53 pm 18:53 Clear 33 0.6 28 -2.2 82 82 SSW 3 6 29.95 1014 10 16.0934 0 0
7:53 pm 19:53 Clear 33 0.6 30 -1.1 89 89 Calm 29.95 1014 10 16.0934 0 0
8:53 pm 20:53 Mostly Cloudy 32 0 30 -1.1 92 92 SSW 3 6 29.95 1014 10 16.0934 0 0
9:53 pm 21:53 Cloudy 32 0 31 -0.6 96 96 Calm 29.95 1014 10 16.0934 0 0
10:53 pm 22:53 Clear 30 -1.1 28 -2.2 92 92 Calm 29.93 1014 8 12.87472 0 0
11:53 pm 23:53 Clear 31 -0.6 30 -1.1 96 96 Calm 29.93 1014 7 11.26538 0 0

Powered by AerisWeather